Location: 相模原市立博物館
(35.5593°N, 139.3931°E)
Time: 20:09:20
(UTC+09:00)

ISS - Visible Passes

Search period start: 26 May 2017 00:00
Search period end: 05 June 2017 00:00
Orbit: 402 x 408 km, 51.6° (Epoch: 26 May)

Date Brightness Start Highest point End Pass type
(mag) Time Alt. Az. Time Alt. Az. Time Alt. Az.
26 May -3.0 02:48:07 10° NW 02:51:20 52° NE 02:54:31 10° ESE visible
26 May -3.8 19:25:45 10° SW 19:29:03 89° SE 19:32:21 10° NE visible
26 May -0.4 21:04:18 10° NW 21:05:56 13° NNW 21:07:35 10° N visible
27 May -1.7 01:56:20 10° NNW 01:59:12 27° NE 02:02:04 10° E visible
27 May -2.8 03:32:54 10° WNW 03:35:36 24° SW 03:38:19 10° S visible
27 May -0.9 20:11:07 10° W 20:13:39 20° NNW 20:16:11 10° NNE visible
28 May -0.4 01:04:44 10° NNW 01:04:54 11° NNW 01:04:54 11° NNW visible
28 May -1.8 19:18:24 10° WSW 19:21:26 34° NW 19:24:29 10° NNE visible
29 May -0.4 20:05:12 10° NW 20:06:18 11° NNW 20:07:25 10° N visible
02 Jun -0.2 23:04:41 10° NNW 23:04:42 10° NNW 23:04:42 10° NNW visible
03 Jun -0.7 22:13:03 10° N 22:14:11 14° N 22:14:11 14° N visible
04 Jun -0.8 21:22:09 10° NNE 21:22:38 10° NNE 21:23:07 10° NNE visible
